OneWeb SL0370

operational
NORAD ID: 49296 Int'l Des: 2021-090 Owner: ONEWEBN Country: UK Constellation: oneweb
LEOCIRCULARPOLARONEWEB_TYPE

About OneWeb SL0370

Description loading...

Live Position

Loading 3D Globe...

Upcoming Passes

Altitude History

Altitude vs Time

uPlot chart will show altitude changes over time

Two-Line Element Set

1 49296U 21090T 26035.97692351 .00000178 00000-0 40550-3 0 9993
2 49296 87.9220 300.8258 0001797 86.2727 273.8612 13.20774039212417
Epoch: Feb 4, 2026 • Age: 11 hours

Current Status

Altitude 1183.7 km
Velocity 7.26 km/s
Sub-Earth Point 20.56°N, 9.05°E
Launch Date Oct 14, 2021
Age 4.3 years
Type internet

Technical Details

Classification Payload
Mass 148.00 kg
Dry Mass 140.00 kg
Total Mass 148.00 kg
Length 1.30 m
Diameter 1.00 m
Span 5.00 m
Shape Trapezoid+2 pan
Manufacturer ONEWUS
Bus Type ARROW
Phase Status In Orbit
Owner/State ONEWEBN/UK

Large Constellations

Loading constellations...